Location: Unspecified
(0.0000°N, 0.0000°E)
Time: 03:30:35
(UTC+00:00)

Diademe D-1C - Visible Passes

Search period start: 17 April 2024 00:00
Search period end: 27 April 2024 00:00
Orbit: 513 x 850 km, 39.9° (Epoch: 16 April)

Date Brightness Start Highest point End Pass type
(mag) Time Alt. Az. Time Alt. Az. Time Alt. Az.
17 Apr 6.7 04:01:01 68° E 04:01:01 68° E 04:06:11 10° NE visible
18 Apr 9.4 02:58:24 12° ENE 02:58:24 12° ENE 02:58:46 10° ENE visible
18 Apr 7.2 04:36:47 32° WNW 04:37:41 34° NW 04:42:47 10° NNE visible
19 Apr 8.3 03:34:04 26° NE 03:34:04 26° NE 03:36:29 10° NE visible
19 Apr 8.6 05:13:33 10° NW 05:15:05 11° NW 05:16:39 10° NNW visible
20 Apr 8.2 04:09:36 21° NNW 04:09:36 21° NNW 04:12:27 10° NNE visible
